Terminal Aerodrome Forecast
Issued by NWS

Home | Current Version | Previous Version | Graphics & Text | Print | Product List | Glossary On
Versions: 1 2 3 4 5 6 7 8 9 10 11 12
000
FTUS43 KGRB 021729
TAFAUW
TAF
KAUW 021729Z 0218/0318 17009KT P6SM SCT250
     FM030100 16005KT P6SM SCT120 SCT250
     FM031500 19010KT P6SM SCT035 BKN200=

USA.gov is the U.S. government's official web portal to all federal, state and local government web resources and services.